sat.trackr.live / text

‹ back to catalog

STARLINK-5191

NORAD 54763 · 2022-175F

PAYLOAD ACTIVE UNKNOWN

§ Identity

Operator
Country
US
Launch date
2022-12-17
Launch site
AFETR
Launch vehicle
Mass (kg)
RCS (m²)

Purposes: comms

External: N2YO · Heavens-Above · Gunter

§ Orbital elements

Epoch: 2026-09-20T06:11:02.201568Z

Period
93.90 min
Inclination
53.1614°
Eccentricity
0.0001052
Mean motion
15.33555039 rev/d
Perigee alt
464.5 km
Apogee alt
465.9 km
Semi-major
6,843.4 km
B*
5.7613e-5
RAAN
247.1132°
Arg perigee
76.8921°
Mean anomaly
283.2199°
Rev number
20,933

§ Raw data

STARLINK-51911 54763U 22175F   26263.25766437  .00001523  00000+0  57613-4 0  99972 54763  53.1614 247.1132 0001052  76.8921 283.2199 15.33555039209338

JSON: /api/v1/satellites/54763 · /tle

For live sub-satellite position, see the globe view (requires WebGL).

§ Visibility from observer

Set your observer location to see the next 7 days of passes ≥ 10°. The values pass through the URL so the page stays shareable.

No JS? Fill the form by hand. The geolocation button needs JavaScript.